Antigo, WI

10:46 PM CDT on August 30, 2016 (GMT -0500)
Langlade County

Weather History for KAIG - April, 2013

Change the Weather History Date:

Wednesday, April 24, 2013

  Actual Average Record
Temperature  
Mean Temperature 34 °F -  
Max Temperature 46 °F 57 °F 78 °F (1948)
Min Temperature 22 °F 33 °F 21 °F (1956)
Degree Days  
Heating Degree Days 31    
Moisture  
Dew Point 25 °F    
Average Humidity 68    
Maximum Humidity 96    
Minimum Humidity 47    
Precipitation  
Precipitation 0.00 in - - ()
Sea Level Pressure  
Sea Level Pressure 29.93 in    
Wind  
Wind Speed 5 mph (West)    
Max Wind Speed 21 mph    
Max Gust Speed 28 mph    
Visibility 10 miles    
Events Rain    
Averages and records for this station are not official NWS values.
T = Trace of Precipitation, MM = Missing Value Source: NWS Daily Summary

Daily Weather History Graph

Daily Weather History Graph

Search for Another Location

Airport or City:

Trip Planner

Search our weather history database for the weather conditions in past years. The results will help you decide how hot, cold, wet, or windy it might be!

Date:

Astronomy

Apr. 24, 2013 Rise Set
Actual Time 5:55 AM CDT 7:53 PM CDT
Civil Twilight 5:24 AM CDT 8:25 PM CDT
Nautical Twilight 4:45 AM CDT 9:04 PM CDT
Astronomical Twilight 4:02 AM CDT 9:47 PM CDT
Moon 6:55 PM CDT (4/24) 5:02 AM CDT (4/24)
Length of Visible Light 15h 01m
Length of Day
13h 58m
Waxing Gibbous, 98% of the Moon is Illuminated
Apr 24
Waxing Gibbous
Apr 25
Full
May 2
Last Quarter
May 9
New
May 17
First Quarter

Hourly Weather History & Observations

Time (CDT) Temp. Windchill Dew Point Humidity Pressure Visibility Wind Dir Wind Speed Gust Speed Precip Events Conditions
12:15 AM 26.8 °F - 23.4 °F 87% 29.97 in 10.0 mi Calm Calm - N/A   Clear
12:35 AM 27.0 °F 23.0 °F 23.0 °F 85% 29.97 in 10.0 mi WNW 3.5 mph - N/A   Clear
12:55 AM 26.6 °F 21.2 °F 23.4 °F 88% 29.96 in 10.0 mi NW 4.6 mph - N/A   Clear
1:15 AM 26.6 °F 21.2 °F 23.0 °F 86% 29.96 in 10.0 mi WNW 4.6 mph - N/A   Clear
1:35 AM 26.6 °F 22.6 °F 23.4 °F 88% 29.96 in 10.0 mi WNW 3.5 mph - N/A   Clear
1:55 AM 26.4 °F - 23.0 °F 87% 29.96 in 10.0 mi Calm Calm - N/A   Clear
2:15 AM 25.5 °F - 22.1 °F 87% 29.95 in 10.0 mi Calm Calm - N/A   Clear
2:35 AM 24.8 °F - 22.5 °F 91% 29.95 in 10.0 mi Calm Calm - N/A   Clear
2:55 AM 24.4 °F - 22.1 °F 91% 29.95 in 10.0 mi Calm Calm - N/A   Clear
3:15 AM 25.0 °F - 22.5 °F 90% 29.95 in 10.0 mi Calm Calm - N/A   Clear
3:35 AM 24.8 °F - 22.5 °F 91% 29.95 in 10.0 mi Calm Calm - N/A   Clear
3:55 AM 23.4 °F - 21.6 °F 93% 29.96 in 10.0 mi Calm Calm - N/A   Clear
4:15 AM 24.3 °F - 21.9 °F 91% 29.95 in 10.0 mi Calm Calm - N/A   Clear
4:35 AM 24.4 °F - 22.1 °F 91% 29.95 in 10.0 mi Calm Calm - N/A   Clear
4:55 AM 23.0 °F - 21.2 °F 93% 29.95 in 10.0 mi Calm Calm - N/A   Clear
5:15 AM 23.9 °F - 21.9 °F 92% 29.95 in 10.0 mi Calm Calm - N/A   Clear
5:35 AM 23.7 °F - 21.9 °F 93% 29.95 in 10.0 mi Calm Calm - N/A   Clear
5:55 AM 23.5 °F 19.1 °F 21.7 °F 93% 29.96 in 10.0 mi SW 3.5 mph - N/A   Clear
6:15 AM 22.1 °F - 20.3 °F 93% 29.95 in 10.0 mi Calm Calm - N/A   Clear
6:35 AM 22.5 °F - 21.4 °F 96% 29.95 in 10.0 mi Calm Calm - N/A   Clear
6:55 AM 25.2 °F 20.9 °F 23.5 °F 94% 29.95 in 10.0 mi West 3.5 mph - N/A   Clear
7:15 AM 26.8 °F 21.4 °F 23.9 °F 89% 29.96 in 10.0 mi WNW 4.6 mph - N/A   Clear
7:35 AM 28.4 °F 23.3 °F 24.3 °F 84% 29.96 in 10.0 mi WNW 4.6 mph - N/A   Clear
7:55 AM 30.0 °F 24.1 °F 23.5 °F 77% 29.96 in 10.0 mi NW 5.8 mph - N/A   Clear
8:15 AM 30.9 °F 25.2 °F 23.2 °F 73% 29.96 in 10.0 mi NW 5.8 mph - N/A   Clear
8:35 AM 32.2 °F 27.7 °F 23.5 °F 70% 29.96 in 10.0 mi NW 4.6 mph - N/A   Clear
8:55 AM 33.6 °F 29.4 °F 23.9 °F 68% 29.97 in 10.0 mi WNW 4.6 mph - N/A   Clear
9:15 AM 34.9 °F 30.8 °F 23.2 °F 62% 29.96 in 10.0 mi West 4.6 mph - N/A   Clear
9:35 AM 36.0 °F 31.1 °F 22.1 °F 57% 29.96 in 10.0 mi WNW 5.8 mph - N/A   Clear
9:55 AM 37.2 °F 33.6 °F 21.7 °F 54% 29.95 in 10.0 mi WNW 4.6 mph - N/A   Clear
10:15 AM 38.3 °F 32.5 °F 20.3 °F 48% 29.95 in 10.0 mi WNW 8.1 mph - N/A   Clear
10:35 AM 38.8 °F 33.2 °F 21.0 °F 49% 29.95 in 10.0 mi WNW 8.1 mph - N/A   Clear
10:55 AM 39.4 °F 32.3 °F 22.6 °F 51% 29.95 in 10.0 mi WSW 11.5 mph - N/A   Clear
11:15 AM 39.4 °F 33.2 °F 20.8 °F 47% 29.95 in 10.0 mi West 9.2 mph - N/A   Clear
11:35 AM 39.9 °F 33.4 °F 21.9 °F 49% 29.94 in 10.0 mi WSW 10.4 mph - N/A   Clear
11:55 AM 40.3 °F 32.2 °F 22.8 °F 50% 29.94 in 10.0 mi WSW 15.0 mph 20.7 mph N/A   Clear
12:15 PM 41.4 °F 34.7 °F 24.3 °F 51% 29.93 in 10.0 mi West 11.5 mph 19.6 mph N/A   Clear
12:35 PM 41.5 °F 36.4 °F 23.9 °F 50% 29.93 in 10.0 mi West 8.1 mph 19.6 mph N/A   Clear
12:55 PM 42.4 °F 36.1 °F 25.5 °F 51% 29.92 in 10.0 mi WSW 11.5 mph 20.7 mph N/A   Clear
1:15 PM 43.0 °F 35.7 °F 25.0 °F 49% 29.92 in 10.0 mi West 15.0 mph 20.7 mph N/A   Clear
1:35 PM 43.3 °F 36.1 °F 26.1 °F 51% 29.91 in 10.0 mi West 15.0 mph 21.9 mph N/A   Clear
1:55 PM 43.2 °F 36.6 °F 25.9 °F 51% 29.91 in 10.0 mi West 12.7 mph - N/A   Clear
2:15 PM 44.2 °F 38.8 °F 25.7 °F 48% 29.91 in 10.0 mi West 10.4 mph 21.9 mph N/A   Scattered Clouds
2:35 PM 44.8 °F 38.7 °F 27.3 °F 50% 29.91 in 10.0 mi West 12.7 mph 19.6 mph N/A   Scattered Clouds
2:55 PM 44.1 °F 35.7 °F 25.7 °F 49% 29.91 in 10.0 mi West 20.7 mph 27.6 mph N/A   Mostly Cloudy
3:15 PM 45.5 °F 38.3 °F 27.5 °F 49% 29.91 in 10.0 mi West 17.3 mph 26.5 mph N/A   Mostly Cloudy
3:35 PM 44.6 °F 38.1 °F 26.8 °F 50% 29.91 in 10.0 mi West 13.8 mph 23.0 mph N/A   Mostly Cloudy
3:55 PM 45.9 °F 39.7 °F 27.5 °F 49% 29.91 in 10.0 mi WNW 13.8 mph 25.3 mph N/A   Mostly Cloudy
4:15 PM 46.4 °F 40.1 °F 27.9 °F 48% 29.90 in 10.0 mi West 15.0 mph 25.3 mph N/A   Mostly Cloudy
4:35 PM 45.3 °F 38.7 °F 27.9 °F 51% 29.90 in 10.0 mi West 15.0 mph 20.7 mph N/A   Mostly Cloudy
4:55 PM 44.1 °F 37.1 °F 26.1 °F 49% 29.90 in 10.0 mi West 15.0 mph 20.7 mph N/A   Overcast
5:15 PM 44.2 °F 38.4 °F 26.8 °F 50% 29.90 in 10.0 mi West 11.5 mph 20.7 mph N/A   Overcast
5:35 PM 44.1 °F 36.8 °F 25.9 °F 49% 29.90 in 10.0 mi WSW 16.1 mph 24.2 mph N/A   Mostly Cloudy
5:55 PM 43.7 °F 37.3 °F 26.6 °F 51% 29.90 in 10.0 mi West 12.7 mph 18.4 mph N/A   Mostly Cloudy
6:15 PM 44.2 °F 36.7 °F 26.6 °F 50% 29.90 in 10.0 mi West 17.3 mph 25.3 mph N/A   Overcast
6:35 PM 41.9 °F 33.7 °F 27.3 °F 56% 29.90 in 10.0 mi West 17.3 mph - N/A   Mostly Cloudy
6:55 PM 42.3 °F 34.8 °F 27.1 °F 55% 29.90 in 10.0 mi West 15.0 mph 21.9 mph N/A   Mostly Cloudy
7:15 PM 42.3 °F 36.3 °F 25.7 °F 52% 29.90 in 10.0 mi West 10.4 mph - N/A   Scattered Clouds
7:35 PM 41.4 °F 33.6 °F 26.2 °F 55% 29.90 in 10.0 mi West 15.0 mph 20.7 mph N/A   Mostly Cloudy
7:55 PM 39.9 °F 33.9 °F 26.1 °F 58% 29.90 in 10.0 mi WSW 9.2 mph - N/A   Mostly Cloudy
8:15 PM 38.5 °F 32.1 °F 25.7 °F 60% 29.90 in 10.0 mi WSW 9.2 mph - N/A   Scattered Clouds
8:35 PM 37.4 °F 31.4 °F 26.6 °F 65% 29.90 in 10.0 mi SW 8.1 mph - N/A   Scattered Clouds
8:55 PM 36.7 °F 32.0 °F 26.6 °F 67% 29.90 in 10.0 mi SW 5.8 mph - N/A   Mostly Cloudy
10:15 PM 35.6 °F 29.9 °F 28.4 °F 75% 29.89 in 10.0 mi South 6.9 mph - N/A   Mostly Cloudy
10:35 PM 36.0 °F 30.3 °F 28.9 °F 76% 29.88 in 10.0 mi South 6.9 mph - N/A   Mostly Cloudy
10:55 PM 35.2 °F 29.5 °F 29.1 °F 78% 29.87 in 10.0 mi South 6.9 mph - N/A   Mostly Cloudy
11:15 PM 35.8 °F 29.4 °F 29.1 °F 77% 29.87 in 10.0 mi South 8.1 mph - N/A   Overcast
11:35 PM 38.3 °F 29.3 °F 29.7 °F 71% 29.87 in 10.0 mi SW 16.1 mph 25.3 mph N/A   Light Drizzle
11:55 PM 35.2 °F 25.8 °F 32.0 °F 88% 29.88 in 5.0 mi WSW 15.0 mph 23.0 mph N/A Rain Rain